Flag for USA

Past Weather in Fairfield Swamp State Wildlife Management Area, Vermont, USA — Yesterday and Last 2 Weeks

Now
28 °F

Mostly cloudy.


Feels Like: 24 °F
Forecast: 28 / 22 °F
Wind: 3 mph from South

Location: Plattsburgh International Airport

Current Time: Dec 6, 2019 at 10:51:46 am

Latest Report: Dec 6, 2019 at 9:53 am


Visibility: 10 mi

Pressure: 30.01 "Hg

Humidity: 58%

Dew Point: 15 °F

Location of Fairfield Swamp State Wildlife Management AreaLocation

Past Weather in Fairfield Swamp State Wildlife Management Area — Graph

°F

Fairfield Swamp State Wildlife Management Area Temperature Yesterday

Maximum temperature yesterday: 37 °F (at 10:53 am)
Minimum temperature yesterday: 27 °F (at 5:53 pm)
Average temperature yesterday: 31 °F

High & Low Weather Summary for the Past Weeks

 TemperatureHumidityPressure
High55 °F (Nov 26, 2:53 pm)100% (Nov 22, 3:05 am)30.32 "Hg (Nov 22, 3:05 am)
Low11 °F (Dec 1, 4:53 am)41% (Nov 25, 1:53 pm)29.39 "Hg (Dec 4, 1:53 pm)
Average30 °F77%29.83 "Hg
* Reported Nov 21 8:53 am — Dec 6 8:53 am, Fairfield Swamp State Wildlife Management Area. Weather by CustomWeather, © 2019

Note: Actual official high and low records may vary slightly from our data, if they occured in-between our weather recording intervals... More about our weather records

Fairfield Swamp State Wildlife Management Area Weather History for the Previous 24 Hours

Scroll right to see more
 ConditionsComfort  
Time TempWeatherWind HumidityBarometerVisibility
8:53 am
Fri, Dec 6
27 °FScattered clouds.No wind63%30.01 "Hg10 mi
7:53 am25 °FPartly sunny.No wind72%30.02 "Hg10 mi
6:53 am25 °FMostly cloudy.5 mph69%30.03 "Hg10 mi
5:53 am25 °FPassing clouds.No wind66%30.04 "Hg10 mi
4:53 am26 °FOvercast.3 mph60%30.04 "Hg10 mi
3:53 am26 °FOvercast.5 mph60%30.04 "Hg10 mi
2:53 am26 °FPartly cloudy.N/A60%30.03 "Hg10 mi
1:53 am26 °FMostly cloudy.6 mph60%30.03 "Hg10 mi
12:53 am26 °FPassing clouds.7 mph60%30.01 "Hg10 mi
11:53 pm
Thu, Dec 5
27 °FOvercast.8 mph61%30.00 "Hg10 mi
10:53 pm27 °FOvercast.9 mph58%29.99 "Hg10 mi
9:53 pm27 °FOvercast.6 mph58%29.96 "Hg10 mi
8:53 pm27 °FOvercast.9 mph55%29.94 "Hg10 mi
7:53 pm27 °FMostly cloudy.10 mph53%29.92 "Hg10 mi
6:53 pm27 °FMostly cloudy.13 mph58%29.88 "Hg10 mi
5:53 pm27 °FPassing clouds.10 mph58%29.85 "Hg10 mi
4:53 pm28 °FPassing clouds.6 mph61%29.80 "Hg10 mi
3:53 pm30 °FPassing clouds.9 mph59%29.75 "Hg10 mi
2:53 pm32 °FMostly cloudy.10 mph61%29.72 "Hg10 mi
1:53 pm32 °FMostly cloudy.6 mph61%29.69 "Hg10 mi
12:53 pm32 °FMostly cloudy.10 mph61%29.66 "Hg10 mi
12:03 pm36 °FPartly sunny.7 mph62%29.63 "Hg10 mi
11:33 am36 °FMostly cloudy.8 mph67%29.62 "Hg10 mi
10:53 am37 °FMostly cloudy.8 mph65%29.62 "Hg10 mi
Weather by CustomWeather, © 2019

See weather overview

Advertising